Find Starlink 1494

NORAD ID: 45760 Int'l Des: 2020-038 Owner: SPXS Country: US Constellation: starlink decayed
LEOCIRCULAR

Re-entered — Jun 15, 2026

3D地球を読み込み中...

About Starlink 1494

Starlink 1494 (NORAD 45760) is a starlink constellation satellite (v1.0) launched Jun 13, 2020 by SPXS of US. It re-entered the atmosphere on Jun 15, 2026. with a mass of 260.00 kg.

Starlink 1494について

説明を読み込み中...

高度履歴

Loading altitude history...

軌道要素

1 45760U 20038AG 26165.83661887 .03947475 12206-4 50098-3 0 9991
2 45760 53.0260 17.2308 0010956 260.8267 99.1538 16.34952431332846
Epoch: Jun 14, 2026 • Age: 229 hours

現在のステータス

Position data unavailable
打ち上げ日 Jun 13, 2020
運用期間 6 years
落下予定日 Jun 15, 2026
タイプ internet

技術仕様

分類 Payload
質量 260.00 kg
乾燥質量 248.00 kg
総質量 260.00 kg
長さ 0.20 m
直径 2.80 m
スパン 9.00 m
形状 Box + pan
製造者 SPXS
バスタイプ Starlink
フェーズステータス Reentered
所有者/国 SPXS/US

Most Searched